Regional Weather Roundup
Issued by NWS

Home | Current Version | Previous Version | Graphics & Text | Print | Product List | Glossary On
Versions: 1 2 3 4 5 6 7 8 9 10 11 12 13 14 15 16 17 18 19 20 21 22 23 24 25 26 27 28 29 30 31 32 33 34 35 36 37 38 39 40 41 42 43 44 45 46 47 48 49 50
000
ASUS44 KMEG 020510
RWRTN
TENNESSEE HOURLY STATE WEATHER ROUNDUP
NATIONAL WEATHER SERVICE MEMPHIS TN
1200 AM CDT WED SEP 02 2015

TNZ002-004-019-021-049-052-054-088>092-020600-
WEST TENNESSEE

CITY           SKY/WX    TMP DP  RH WIND       PRES   REMARKS
MEMPHIS INTL   MOCLDY    82  70  66 SE3       30.09S
NWS MEMPHIS      N/A     74 N/A N/A MISG        N/A
JACKSON        FOG       72  71  97 CALM      30.10S VSB 3/4
DYERSBURG      CLOUDY    75  72  88 CALM      30.10F
UNION CITY     CLEAR    N/A N/A N/A CALM      30.09S
PARIS          CLEAR     70  66  88 CALM      30.11S
LEXINGTON      CLEAR     72  72 100 CALM      30.10S
$$

TNZ008-025-027-028-033-062-065-066-020600-
NORTH MIDDLE TENNESSEE

CITY           SKY/WX    TMP DP  RH WIND       PRES   REMARKS
NASHVILLE      PTCLDY    73  67  81 CALM      30.12S
CLARKSVILLE    PTCLDY    71  67  87 CALM      30.11S
SMYRNA         PTCLDY    70  68  93 CALM      30.12S
COOKEVILLE     CLEAR     66  66 100 CALM      30.13S
CROSSVILLE     CLEAR     69  66  90 CALM      30.18F FOG
$$

TNZ061-075-076-078-094-096-097-020600-
SOUTH MIDDLE TENNESSEE

CITY           SKY/WX    TMP DP  RH WIND       PRES   REMARKS
FAYETTEVILLE   CLEAR     70  70 100 CALM      30.12F
TULLAHOMA      CLEAR     68  64  88 CALM      30.14S
WINCHESTER     CLEAR     70  66  88 CALM      30.13S
MCMINNVILLE    MOCLDY    70  70 100 CALM      30.14S VSB 1/2
COLUMBIA       CLEAR     72  72 100 CALM      30.10S
SHELBYVILLE    CLEAR     72  72 100 CALM      30.13S
$$

TNZ017-018-042-046-047-020600-
NORTHEAST TENNESSEE

CITY           SKY/WX    TMP DP  RH WIND       PRES   REMARKS
TRI CITIES     PTCLDY    69  67  93 CALM      30.16R
ELIZABETHTON   CLEAR     66  63  88 NE5       30.17S
$$

TNZ012-013-036-069-073-074-020600-
CENTRAL EAST TENNESSEE

CITY           SKY/WX    TMP DP  RH WIND       PRES   REMARKS
KNOXVILLE      MOCLDY    74  69  85 CALM      30.12R
OAK RIDGE      CLEAR     72  68  87 CALM      30.14S
GATLINBURG     CLEAR     70  64  83 CALM      30.12S
MORRISTOWN     CLEAR     72  68  88 CALM      30.15S
$$

TNZ083-085-099-020600-
SOUTHEAST TENNESSEE

CITY           SKY/WX    TMP DP  RH WIND       PRES   REMARKS
CHATTANOOGA    PTCLDY    73  69  87 CALM      30.12R
$$

SKY/WX REPORTED AS FAIR MEANS FEW OR NO CLOUDS BELOW
12 THOUSAND FEET.




USA.gov is the U.S. government's official web portal to all federal, state and local government web resources and services.